Total_Precipitation_Accumulation
1.81 1.77 1.80 1.99 1.99 2.05 2.04 1.77 1.52 1.60 1.67 1.59 1.40 1.35 1.44 1.46 1.49 1.64 1.80 1.73 1.67 1.80 2.04 2.19 2.29 2.24 2.17 2.17 2.15 2.16 2.15 2.12 2.07 1.96 1.76 1.59 1.51 1.49 1.51 1.54 1.56 1.49 1.42
2.10 2.12 2.10 2.12 2.11 2.25 2.28 2.03 1.85 1.96 1.92 1.85 1.64 1.54 1.52 1.59 1.58 1.68 1.79 1.75 1.54 1.49 1.70 2.06 2.30 2.40 2.44 2.47 2.35 2.22 2.19 2.14 2.13 2.03 1.89 1.73 1.64 1.57 1.52 1.53 1.58 1.58 1.49
2.46 2.52 2.53 2.41 2.30 2.29 2.34 2.27 2.16 2.12 2.07 1.89 1.80 1.77 1.73 1.60 1.54 1.69 1.81 1.83 1.72 1.61 1.68 1.80 1.96 2.20 2.54 2.68 2.60 2.47 2.37 2.31 2.20 2.11 2.04 1.93 1.78 1.68 1.60 1.56 1.57 1.56 1.53
2.60 2.80 2.81 2.58 2.42 2.33 2.44 2.53 2.42 2.38 2.35 2.28 2.04 1.80 1.78 1.74 1.64 1.67 1.70 1.78 1.90 1.81 1.84 1.78 1.82 1.98 2.23 2.46 2.62 2.67 2.61 2.50 2.40 2.30 2.22 2.11 2.02 1.85 1.70 1.65 1.62 1.58 1.56
2.71 2.86 2.95 2.89 2.61 2.57 2.65 2.54 2.72 2.63 2.62 2.45 2.10 1.92 1.75 1.63 1.65 1.62 1.65 1.67 1.71 1.75 1.83 1.86 1.88 1.95 2.13 2.33 2.46 2.61 2.63 2.60 2.48 2.32 2.28 2.29 2.17 1.99 1.86 1.81 1.74 1.66 1.62
2.79 2.97 3.01 3.06 2.91 2.91 3.01 2.94 2.96 2.77 2.57 2.43 2.08 1.90 1.69 1.48 1.45 1.49 1.48 1.47 1.44 1.47 1.57 1.66 1.78 1.77 1.89 2.05 2.33 2.59 2.85 2.90 2.75 2.56 2.45 2.37 2.24 2.04 1.91 1.91 1.86 1.78 1.72
3.40 3.54 3.43 3.34 3.17 3.12 3.12 3.01 2.88 2.77 2.64 2.60 2.46 2.15 1.75 1.41 1.27 1.23 1.30 1.33 1.29 1.30 1.37 1.48 1.56 1.62 1.70 1.74 1.87 2.17 2.59 2.89 2.88 2.75 2.65 2.52 2.38 2.23 2.11 2.05 2.02 1.97 1.86
4.03 3.99 3.89 3.61 3.35 3.19 3.03 2.91 2.79 2.66 2.50 2.49 2.49 2.40 2.03 1.70 1.37 1.13 1.24 1.29 1.28 1.32 1.32 1.28 1.32 1.36 1.37 1.48 1.63 1.85 2.14 2.33 2.53 2.72 2.68 2.53 2.42 2.36 2.31 2.25 2.21 2.16 2.08
3.88 3.79 3.71 3.53 3.31 3.12 2.95 2.93 2.89 2.80 2.64 2.58 2.57 2.61 2.41 1.96 1.54 1.29 1.20 1.23 1.30 1.35 1.35 1.32 1.25 1.26 1.31 1.39 1.46 1.65 1.85 1.93 2.08 2.29 2.47 2.45 2.38 2.41 2.41 2.43 2.42 2.38 2.33
3.62 3.48 3.50 3.42 3.23 2.99 2.82 2.68 2.65 2.71 2.77 2.62 2.49 2.30 2.17 1.94 1.80 1.57 1.38 1.30 1.26 1.27 1.26 1.25 1.24 1.28 1.35 1.47 1.61 1.67 1.70 1.67 1.71 1.83 1.94 2.07 2.15 2.23 2.33 2.31 2.37 2.46 2.52
3.36 3.17 3.12 3.01 2.82 2.63 2.47 2.34 2.28 2.33 2.41 2.42 2.40 2.28 2.17 2.02 1.85 1.71 1.57 1.45 1.39 1.29 1.24 1.24 1.25 1.30 1.36 1.41 1.52 1.56 1.59 1.53 1.55 1.60 1.65 1.77 1.87 1.97 2.12 2.26 2.38 2.52 2.67
3.12 2.86 2.61 2.50 2.43 2.24 2.02 1.94 1.89 1.88 1.94 2.04 2.16 2.15 2.04 1.96 1.89 1.86 1.74 1.60 1.55 1.47 1.37 1.33 1.28 1.27 1.34 1.33 1.32 1.49 1.44 1.41 1.41 1.44 1.50 1.57 1.60 1.67 1.80 1.98 2.22 2.44 2.62
2.68 2.43 2.22 2.08 1.98 1.93 1.81 1.71 1.66 1.55 1.53 1.62 1.69 1.83 1.86 1.78 1.71 1.77 1.87 1.82 1.66 1.50 1.37 1.28 1.16 1.10 1.14 1.26 1.37 1.39 1.27 1.23 1.19 1.19 1.25 1.40 1.50 1.53 1.51 1.62 1.77 1.99 2.20
2.23 1.99 1.86 1.71 1.54 1.41 1.34 1.36 1.40 1.39 1.38 1.42 1.42 1.57 1.68 1.69 1.68 1.67 1.70 1.86 1.85 1.61 1.45 1.29 1.15 1.07 1.09 1.15 1.27 1.17 1.13 1.10 1.04 1.07 1.11 1.20 1.30 1.46 1.45 1.38 1.36 1.44 1.58
1.71 1.59 1.48 1.45 1.36 1.28 1.21 1.18 1.19 1.26 1.27 1.28 1.30 1.36 1.45 1.46 1.48 1.53 1.59 1.71 1.84 1.75 1.57 1.35 1.32 1.26 1.22 1.21 1.30 1.15 1.18 1.14 1.10 1.15 1.17 1.21 1.29 1.44 1.50 1.39 1.28 1.20 1.18
1.40 1.28 1.23 1.21 1.19 1.18 1.16 1.20 1.19 1.20 1.23 1.19 1.16 1.14 1.14 1.14 1.20 1.25 1.34 1.46 1.59 1.67 1.58 1.30 1.25 1.32 1.31 1.20 1.37 1.26 1.22 1.20 1.14 1.34 1.49 1.44 1.41 1.59 1.73 1.68 1.50 1.36 1.29
1.17 1.11 1.05 1.02 1.03 1.06 1.06 1.07 1.05 1.02 0.99 0.95 0.94 0.95 0.97 1.02 1.09 1.10 1.13 1.27 1.48 1.63 1.65 1.34 1.19 1.26 1.41 1.39 1.41 1.37 1.28 1.24 1.30 1.68 1.88 2.07 1.82 1.73 1.83 1.80 1.69 1.49 1.35
1.05 1.02 0.93 0.87 0.84 0.84 0.83 0.83 0.85 0.88 0.90 0.86 0.89 0.93 0.94 0.96 0.99 1.05 1.10 1.17 1.32 1.52 1.68 1.59 1.35 1.35 1.42 1.45 1.51 1.50 1.31 1.17 1.23 1.68 1.97 2.28 2.25 2.01 2.02 1.85 1.68 1.49 1.36
0.94 0.88 0.85 0.83 0.76 0.73 0.69 0.67 0.70 0.77 0.80 0.79 0.83 0.89 0.93 1.05 1.04 1.05 1.11 1.14 1.24 1.37 1.62 1.69 1.52 1.48 1.55 1.62 1.72 1.60 1.43 1.39 1.16 1.41 1.84 2.18 2.36 2.39 2.46 2.31 1.99 1.63 1.40
0.89 0.86 0.85 0.77 0.69 0.63 0.62 0.61 0.63 0.67 0.71 0.75 0.82 0.88 0.92 1.04 1.12 1.14 1.12 1.14 1.18 1.31 1.49 1.65 1.62 1.59 1.66 1.75 1.80 1.75 1.60 1.45 1.30 1.25 1.71 2.19 2.52 2.56 2.72 2.81 2.50 2.01 1.60
0.81 0.81 0.82 0.77 0.70 0.61 0.57 0.57 0.58 0.61 0.70 0.75 0.76 0.77 0.81 0.91 1.00 0.99 0.92 0.94 1.08 1.30 1.40 1.57 1.63 1.61 1.61 1.74 1.73 1.56 1.50 1.42 1.28 1.22 1.44 1.84 2.54 2.85 2.90 2.95 2.83 2.31 1.82
0.80 0.77 0.75 0.73 0.68 0.56 0.57 0.58 0.55 0.60 0.65 0.69 0.71 0.71 0.68 0.67 0.66 0.69 0.75 0.80 0.92 1.19 1.52 1.73 1.70 1.64 1.53 1.52 1.56 1.52 1.52 1.53 1.46 1.18 1.16 1.45 2.05 2.82 3.07 3.01 2.91 2.30 1.75
0.77 0.71 0.68 0.69 0.67 0.60 0.57 0.51 0.50 0.55 0.65 0.71 0.75 0.75 0.60 0.51 0.60 0.67 0.73 0.77 0.90 1.07 1.36 1.71 1.82 1.61 1.55 1.52 1.57 1.57 1.62 1.68 1.55 1.23 1.24 1.48 1.85 2.53 2.75 2.75 2.62 2.00 1.57
0.74 0.72 0.71 0.70 0.70 0.59 0.54 0.49 0.49 0.54 0.65 0.67 0.68 0.71 0.73 0.68 0.64 0.71 0.77 0.86 1.00 1.15 1.26 1.35 1.66 1.49 1.28 1.29 1.39 1.44 1.54 1.57 1.47 1.30 1.31 1.58 1.84 2.30 2.32 2.40 2.30 1.82 1.45
0.73 0.68 0.66 0.67 0.73 0.69 0.59 0.51 0.46 0.54 0.62 0.62 0.59 0.59 0.59 0.62 0.68 0.80 0.95 1.15 1.28 1.40 1.33 1.46 1.63 1.57 1.41 1.31 1.22 1.29 1.52 1.58 1.53 1.38 1.34 1.58 1.78 1.90 2.02 2.10 1.91 1.71 1.44
0.69 0.64 0.61 0.64 0.68 0.65 0.51 0.43 0.41 0.48 0.57 0.60 0.63 0.63 0.56 0.53 0.64 0.79 1.05 1.35 1.49 1.55 1.41 1.51 1.76 1.80 1.63 1.60 1.55 1.46 1.59 1.65 1.61 1.56 1.33 1.40 1.60 1.65 1.88 1.87 1.71 1.59 1.49